| time (UTC) | temp F | wind direction | speed MPH | gust MPH | rain 1hr in | rain 24hr in | rain mn in | humidity % | barometer mb |
| 20260509160415 | 63 | 30 | 10.0 | 21.0 | 0.00 | 0.00 | 0.00 | 25 | 1021.4 |
| 20260509155416 | 63 | 355 | 12.0 | 15.0 | 0.00 | 0.00 | 0.00 | 26 | 1021.5 |
| 20260509154415 | 63 | 349 | 9.0 | 13.0 | 0.00 | 0.00 | 0.00 | 26 | 1021.2 |
| 20260509153436 | 63 | 24 | 6.0 | 11.0 | 0.00 | 0.00 | 0.00 | 26 | 1021.2 |
| 20260509152415 | 63 | 14 | 8.0 | 14.0 | 0.00 | 0.00 | 0.00 | 26 | 1020.8 |
| 20260509151435 | 62 | 315 | 12.0 | 26.0 | 0.00 | 0.00 | 0.00 | 27 | 1021.0 |
| 20260509150456 | 62 | 19 | 15.0 | 23.0 | 0.00 | 0.00 | 0.00 | 27 | 1020.7 |
| 20260509145415 | 62 | 8 | 10.0 | 16.0 | 0.00 | 0.00 | 0.00 | 28 | 1020.7 |
| 20260509144435 | 62 | 8 | 10.0 | 20.0 | 0.00 | 0.00 | 0.00 | 28 | 1021.0 |
| 20260509143415 | 62 | 8 | 8.0 | 17.0 | 0.00 | 0.00 | 0.00 | 28 | 1021.0 |
| 20260509142415 | 61 | 14 | 11.0 | 15.0 | 0.00 | 0.00 | 0.00 | 28 | 1021.0 |
| 20260509141415 | 62 | 301 | 8.0 | 14.0 | 0.00 | 0.00 | 0.00 | 29 | 1021.7 |
| 20260509140415 | 61 | 2 | 8.0 | 15.0 | 0.00 | 0.00 | 0.00 | 29 | 1021.6 |
| 20260509135415 | 61 | 33 | 6.0 | 10.0 | 0.00 | 0.00 | 0.00 | 30 | 1021.7 |
| 20260509134415 | 60 | 317 | 7.0 | 13.0 | 0.00 | 0.00 | 0.00 | 30 | 1021.6 |
| 20260509133415 | 60 | 360 | 5.0 | 14.0 | 0.00 | 0.00 | 0.00 | 30 | 1021.5 |
| 20260509132415 | 60 | 337 | 10.0 | 14.0 | 0.00 | 0.00 | 0.00 | 30 | 1021.1 |
| 20260509131435 | 59 | 302 | 6.0 | 12.0 | 0.00 | 0.00 | 0.00 | 30 | 1021.0 |
| 20260509130415 | 59 | 322 | 9.0 | 14.0 | 0.00 | 0.00 | 0.00 | 31 | 1021.0 |
| 20260509125435 | 59 | 321 | 10.0 | 17.0 | 0.00 | 0.00 | 0.00 | 31 | 1020.7 |
| 20260509124415 | 59 | 306 | 11.0 | 18.0 | 0.00 | 0.00 | 0.00 | 31 | 1020.6 |
| 20260509123415 | 59 | 331 | 4.0 | 7.0 | 0.00 | 0.00 | 0.00 | 30 | 1020.5 |
| 20260509122435 | 59 | 334 | 7.0 | 16.0 | 0.00 | 0.00 | 0.00 | 30 | 1020.3 |
| 20260509121415 | 59 | 16 | 4.0 | 9.0 | 0.00 | 0.00 | 0.00 | 29 | 1020.2 |
| 20260509120415 | 59 | 347 | 8.0 | 13.0 | 0.00 | 0.00 | 0.00 | 29 | 1020.0 |
| 20260509115415 | 59 | 46 | 4.0 | 10.0 | 0.00 | 0.00 | 0.00 | 28 | 1019.9 |
| 20260509114415 | 60 | 96 | 5.0 | 9.0 | 0.00 | 0.00 | 0.00 | 28 | 1019.8 |
| 20260509113415 | 60 | 251 | 6.0 | 10.0 | 0.00 | 0.00 | 0.00 | 27 | 1019.7 |
| 20260509112415 | 60 | 239 | 2.0 | 9.0 | 0.00 | 0.00 | 0.00 | 27 | 1019.7 |
| 20260509111415 | 60 | 326 | 6.0 | 13.0 | 0.00 | 0.00 | 0.00 | 27 | 1019.6 |
| 20260509110435 | 61 | 350 | 9.0 | 18.0 | 0.00 | 0.00 | 0.00 | 27 | 1019.7 |
| 20260509105415 | 61 | 307 | 10.0 | 17.0 | 0.00 | 0.00 | 0.00 | 26 | 1019.8 |
| 20260509104417 | 61 | 321 | 7.0 | 16.0 | 0.00 | 0.00 | 0.00 | 26 | 1019.6 |
| 20260509103415 | 61 | 272 | 8.0 | 16.0 | 0.00 | 0.00 | 0.00 | 26 | 1019.4 |
| 20260509102417 | 62 | 293 | 5.0 | 17.0 | 0.00 | 0.00 | 0.00 | 26 | 1019.6 |
| 20260509101417 | 61 | 290 | 8.0 | 12.0 | 0.00 | 0.00 | 0.00 | 27 | 1019.1 |
| 20260509100437 | 62 | 308 | 10.0 | 22.0 | 0.00 | 0.00 | 0.00 | 27 | 1019.4 |
| 20260509095437 | 62 | 340 | 8.0 | 25.0 | 0.00 | 0.00 | 0.00 | 26 | 1019.2 |
| 20260509094417 | 63 | 347 | 8.0 | 17.0 | 0.00 | 0.00 | 0.00 | 26 | 1019.1 |
| 20260509093416 | 63 | 297 | 14.0 | 26.0 | 0.00 | 0.00 | 0.00 | 26 | 1019.0 |
| 20260509092417 | 63 | 325 | 19.0 | 36.0 | 0.00 | 0.00 | 0.00 | 27 | 1019.0 |
| 20260509091417 | 63 | 302 | 9.0 | 17.0 | 0.00 | 0.00 | 0.00 | 27 | 1018.8 |
| 20260509090416 | 64 | 322 | 11.0 | 18.0 | 0.00 | 0.00 | 0.00 | 27 | 1019.2 |
| 20260509085417 | 64 | 320 | 12.0 | 32.0 | 0.00 | 0.00 | 0.00 | 27 | 1019.2 |
| 20260509084416 | 64 | 347 | 8.0 | 17.0 | 0.00 | 0.00 | 0.00 | 27 | 1019.2 |
| 20260509083417 | 65 | 333 | 3.0 | 8.0 | 0.00 | 0.00 | 0.00 | 26 | 1018.8 |
| 20260509082416 | 65 | 13 | 6.0 | 13.0 | 0.00 | 0.00 | 0.00 | 26 | 1018.8 |
| 20260509081416 | 65 | 320 | 10.0 | 26.0 | 0.00 | 0.00 | 0.00 | 26 | 1018.8 |
| 20260509080416 | 65 | 339 | 5.0 | 16.0 | 0.00 | 0.00 | 0.00 | 26 | 1018.8 |
| 20260509075417 | 65 | 312 | 12.0 | 22.0 | 0.00 | 0.00 | 0.00 | 27 | 1018.9 |
| 20260509074417 | 65 | 299 | 11.0 | 19.0 | 0.00 | 0.00 | 0.00 | 28 | 1018.9 |
| 20260509073457 | 65 | 308 | 10.0 | 17.0 | 0.00 | 0.00 | 0.00 | 32 | 1018.9 |
| 20260509072417 | 66 | 247 | 4.0 | 8.0 | 0.00 | 0.00 | 0.00 | 29 | 1018.9 |
| 20260509071416 | 66 | 194 | 4.0 | 7.0 | 0.00 | 0.00 | 0.00 | 28 | 1018.6 |
| 20260509070416 | 67 | 246 | 4.0 | 7.0 | 0.00 | 0.00 | 0.00 | 28 | 1018.4 |
| 20260509065416 | 67 | 305 | 1.0 | 2.0 | 0.00 | 0.00 | 0.00 | 28 | 1018.3 |
| 20260509064416 | 67 | 314 | 3.0 | 10.0 | 0.00 | 0.00 | 0.00 | 29 | 1018.3 |
| 20260509063416 | 67 | 33 | 5.0 | 9.0 | 0.00 | 0.00 | 0.00 | 28 | 1018.3 |
| 20260509062416 | 67 | 298 | 2.0 | 6.0 | 0.00 | 0.00 | 0.00 | 27 | 1018.3 |
| 20260509061416 | 66 | 2 | 9.0 | 16.0 | 0.00 | 0.00 | 0.00 | 27 | 1018.2 |
| 20260509060416 | 64 | 309 | 11.0 | 15.0 | 0.00 | 0.00 | 0.00 | 30 | 1018.0 |
| 20260509055435 | 66 | 274 | 2.0 | 3.0 | 0.00 | 0.00 | 0.00 | 28 | 1018.1 |
| 20260509054415 | 67 | 274 | 3.0 | 6.0 | 0.00 | 0.00 | 0.00 | 27 | 1018.5 |
| 20260509053415 | 67 | 272 | 5.0 | 7.0 | 0.00 | 0.00 | 0.00 | 27 | 1018.5 |
| 20260509052416 | 67 | 287 | 5.0 | 7.0 | 0.00 | 0.00 | 0.00 | 27 | 1018.5 |
| 20260509051415 | 67 | 283 | 6.0 | 8.0 | 0.00 | 0.00 | 0.00 | 26 | 1018.3 |
| 20260509050415 | 67 | 278 | 5.0 | 7.0 | 0.00 | 0.00 | 0.00 | 26 | 1018.2 |
| 20260509045435 | 67 | 271 | 3.0 | 7.0 | 0.00 | 0.00 | 0.00 | 27 | 1018.3 |
| 20260509044415 | 67 | 264 | 3.0 | 4.0 | 0.00 | 0.00 | 0.00 | 27 | 1018.0 |
| 20260509043415 | 67 | 277 | 6.0 | 8.0 | 0.00 | 0.00 | 0.00 | 27 | 1017.9 |
| 20260509042415 | 67 | 319 | 5.0 | 7.0 | 0.00 | 0.00 | 0.00 | 26 | 1017.8 |
| 20260509041415 | 67 | 312 | 3.0 | 7.0 | 0.00 | 0.00 | 0.00 | 26 | 1017.3 |
| 20260509040415 | 67 | 314 | 5.0 | 8.0 | 0.00 | 0.00 | 0.00 | 26 | 1017.2 |
| 20260509035416 | 67 | 320 | 3.0 | 5.0 | 0.00 | 0.00 | 0.00 | 26 | 1017.3 |
| 20260509034435 | 67 | 320 | 1.0 | 2.0 | 0.00 | 0.00 | 0.00 | 27 | 1016.9 |
| 20260509033415 | 67 | 311 | 5.0 | 8.0 | 0.00 | 0.00 | 0.00 | 26 | 1016.8 |
| 20260509032435 | 66 | 289 | 5.0 | 8.0 | 0.00 | 0.00 | 0.00 | 27 | 1016.7 |
| 20260509031435 | 65 | 333 | 2.0 | 2.0 | 0.00 | 0.00 | 0.00 | 28 | 1016.2 |
| 20260509030415 | 66 | 333 | 3.0 | 4.0 | 0.00 | 0.00 | 0.00 | 28 | 1016.3 |
| 20260509025415 | 67 | 315 | 5.0 | 8.0 | 0.00 | 0.00 | 0.00 | 26 | 1016.4 |
| 20260509024415 | 68 | 312 | 9.0 | 11.0 | 0.00 | 0.00 | 0.00 | 27 | 1016.3 |
| 20260509023435 | 68 | 324 | 6.0 | 8.0 | 0.00 | 0.00 | 0.00 | 26 | 1016.3 |
| 20260509022415 | 68 | 309 | 6.0 | 8.0 | 0.00 | 0.00 | 0.00 | 26 | 1016.3 |
| 20260509021435 | 69 | 300 | 3.0 | 4.0 | 0.00 | 0.00 | 0.00 | 25 | 1015.8 |
| 20260509020415 | 71 | 298 | 2.0 | 4.0 | 0.00 | 0.00 | 0.00 | 24 | 1016.2 |
| 20260509015415 | 72 | 317 | 5.0 | 8.0 | 0.00 | 0.00 | 0.00 | 22 | 1016.5 |
| 20260509014415 | 73 | 308 | 4.0 | 9.0 | 0.00 | 0.00 | 0.00 | 20 | 1015.4 |
| 20260509013415 | 74 | 317 | 5.0 | 9.0 | 0.00 | 0.00 | 0.00 | 20 | 1015.8 |
| 20260509012415 | 74 | 334 | 7.0 | 10.0 | 0.00 | 0.00 | 0.00 | 20 | 1015.8 |
| 20260509011415 | 74 | 3 | 6.0 | 11.0 | 0.00 | 0.00 | 0.00 | 22 | 1016.2 |
| 20260509010435 | 75 | 326 | 7.0 | 12.0 | 0.00 | 0.00 | 0.00 | 22 | 1016.3 |
| 20260509005417 | 75 | 354 | 3.0 | 11.0 | 0.00 | 0.00 | 0.00 | 21 | 1016.3 |
| 20260509004417 | 74 | 28 | 12.0 | 15.0 | 0.00 | 0.00 | 0.00 | 22 | 1015.9 |
| 20260509003417 | 74 | 39 | 12.0 | 15.0 | 0.00 | 0.00 | 0.00 | 22 | 1016.3 |
| 20260509002417 | 74 | 359 | 8.0 | 11.0 | 0.00 | 0.00 | 0.00 | 22 | 1016.4 |
| 20260509001417 | 74 | 38 | 7.0 | 12.0 | 0.00 | 0.00 | 0.00 | 22 | 1016.0 |
| 20260509000418 | 74 | 6 | 7.0 | 13.0 | 0.00 | 0.00 | 0.00 | 22 | 1016.1 |
| 20260508235417 | 74 | 38 | 13.0 | 18.0 | 0.00 | 0.00 | 0.00 | 22 | 1016.2 |
| 20260508234417 | 74 | 36 | 12.0 | 18.0 | 0.00 | 0.00 | 0.00 | 22 | 1016.8 |
| 20260508233417 | 74 | 15 | 11.0 | 17.0 | 0.00 | 0.00 | 0.00 | 22 | 1016.8 |
| 20260508232417 | 74 | 42 | 11.0 | 16.0 | 0.00 | 0.00 | 0.00 | 23 | 1017.0 |
| 20260508231437 | 74 | 38 | 13.0 | 18.0 | 0.00 | 0.00 | 0.00 | 22 | 1016.7 |
| 20260508230417 | 73 | 45 | 11.0 | 15.0 | 0.00 | 0.00 | 0.00 | 23 | 1016.7 |
| 20260508225418 | 73 | 31 | 8.0 | 17.0 | 0.00 | 0.00 | 0.00 | 23 | 1016.9 |
| 20260508224417 | 73 | 12 | 9.0 | 20.0 | 0.00 | 0.00 | 0.00 | 24 | 1017.9 |
| 20260508223417 | 73 | 44 | 15.0 | 21.0 | 0.00 | 0.00 | 0.00 | 24 | 1018.1 |
| 20260508222417 | 73 | 35 | 9.0 | 19.0 | 0.00 | 0.00 | 0.00 | 24 | 1018.1 |
| 20260508221417 | 73 | 36 | 16.0 | 25.0 | 0.00 | 0.00 | 0.00 | 24 | 1018.4 |
| 20260508220417 | 72 | 10 | 6.0 | 16.0 | 0.00 | 0.00 | 0.00 | 25 | 1018.7 |
| 20260508215417 | 72 | 43 | 13.0 | 20.0 | 0.00 | 0.00 | 0.00 | 24 | 1018.7 |
| 20260508214417 | 73 | 36 | 13.0 | 19.0 | 0.00 | 0.00 | 0.00 | 24 | 1018.8 |
| 20260508213416 | 73 | 43 | 14.0 | 20.0 | 0.00 | 0.00 | 0.00 | 24 | 1018.9 |
| 20260508212416 | 73 | 7 | 10.0 | 22.0 | 0.00 | 0.00 | 0.00 | 24 | 1019.1 |
| 20260508211416 | 72 | 47 | 16.0 | 24.0 | 0.00 | 0.00 | 0.00 | 24 | 1018.6 |
| 20260508210417 | 72 | 39 | 13.0 | 19.0 | 0.00 | 0.00 | 0.00 | 25 | 1018.7 |
| 20260508205436 | 72 | 42 | 12.0 | 20.0 | 0.00 | 0.00 | 0.00 | 24 | 1018.9 |
| 20260508204416 | 72 | 38 | 11.0 | 17.0 | 0.00 | 0.00 | 0.00 | 25 | 1018.6 |
| 20260508203416 | 72 | 360 | 11.0 | 23.0 | 0.00 | 0.00 | 0.00 | 24 | 1018.6 |
| 20260508202417 | 72 | 11 | 11.0 | 19.0 | 0.00 | 0.00 | 0.00 | 25 | 1018.8 |
| 20260508201416 | 72 | 359 | 13.0 | 19.0 | 0.00 | 0.00 | 0.00 | 25 | 1019.0 |
| 20260508200416 | 73 | 31 | 15.0 | 20.0 | 0.00 | 0.00 | 0.00 | 23 | 1019.2 |
| 20260508195416 | 72 | 350 | 10.0 | 19.0 | 0.00 | 0.00 | 0.00 | 21 | 1018.9 |
| 20260508194416 | 72 | 308 | 8.0 | 15.0 | 0.00 | 0.00 | 0.00 | 22 | 1019.4 |
| 20260508193416 | 72 | 324 | 12.0 | 21.0 | 0.00 | 0.00 | 0.00 | 23 | 1019.6 |
| 20260508192416 | 71 | 336 | 11.0 | 16.0 | 0.00 | 0.00 | 0.00 | 22 | 1019.7 |
| 20260508191416 | 71 | 311 | 12.0 | 20.0 | 0.00 | 0.00 | 0.00 | 24 | 1019.7 |
| 20260508190416 | 71 | 356 | 13.0 | 15.0 | 0.00 | 0.00 | 0.00 | 23 | 1019.9 |
| 20260508185416 | 71 | 305 | 10.0 | 21.0 | 0.00 | 0.00 | 0.00 | 23 | 1020.2 |
| 20260508184457 | 70 | 308 | 15.0 | 21.0 | 0.00 | 0.00 | 0.00 | 25 | 1020.7 |
| 20260508183416 | 70 | 355 | 11.0 | 15.0 | 0.00 | 0.00 | 0.00 | 31 | 1020.7 |
| 20260508182456 | 69 | 352 | 7.0 | 12.0 | 0.00 | 0.00 | 0.00 | 32 | 1020.5 |
| 20260508181436 | 70 | 355 | 9.0 | 14.0 | 0.00 | 0.00 | 0.00 | 30 | 1020.9 |
| 20260508180416 | 70 | 41 | 13.0 | 15.0 | 0.00 | 0.00 | 0.00 | 32 | 1020.9 |
| 20260508175416 | 70 | 354 | 5.0 | 10.0 | 0.00 | 0.00 | 0.00 | 30 | 1020.8 |
| 20260508174416 | 69 | 204 | 5.0 | 9.0 | 0.00 | 0.00 | 0.00 | 35 | 1020.7 |
| 20260508173416 | 69 | 164 | 2.0 | 8.0 | 0.00 | 0.00 | 0.00 | 35 | 1020.8 |
| 20260508172416 | 70 | 134 | 5.0 | 9.0 | 0.00 | 0.00 | 0.00 | 35 | 1020.7 |
| 20260508171436 | 69 | 95 | 3.0 | 10.0 | 0.00 | 0.00 | 0.00 | 35 | 1020.5 |
| 20260508170416 | 68 | 108 | 3.0 | 6.0 | 0.00 | 0.00 | 0.00 | 36 | 1020.4 |
| 20260508165416 | 67 | 105 | 6.0 | 10.0 | 0.00 | 0.00 | 0.00 | 38 | 1020.1 |
| 20260508164416 | 67 | 106 | 3.0 | 5.0 | 0.00 | 0.00 | 0.00 | 39 | 1020.8 |
| 20260508163416 | 67 | 103 | 1.0 | 6.0 | 0.00 | 0.00 | 0.00 | 38 | 1020.8 |
| 20260508162416 | 66 | 137 | 4.0 | 7.0 | 0.00 | 0.00 | 0.00 | 41 | 1020.4 |
| 20260508161416 | 66 | 139 | 2.0 | 3.0 | 0.00 | 0.00 | 0.00 | 40 | 1020.5 |